Regional Weather Roundup
Issued by NWS

Home | Current Version | Previous Version | Text Only | Print | Product List | Glossary Off
Versions: 1 2 3 4 5 6 7 8 9 10 11 12 13 14 15 16 17 18 19 20 21 22 23 24 25 26 27 28 29 30 31 32 33 34 35 36 37 38 39 40 41 42 43 44 45 46 47 48 49 50

784
ASUS43 KFSD 082110
RWRSD

WEATHER ROUNDUP FOR SOUTH DAKOTA
NATIONAL WEATHER SERVICE SIOUX FALLS SD
300 PM CST THU DEC 08 2016

NOTE: "FAIR" INDICATES FEW OR NO CLOUDS BELOW 12,000 FEET WITH NO
SIGNIFICANT WEATHER AND/OR OBSTRUCTIONS TO VISIBILITY.


SDZ001>005-009-010-012>017-082200-
NORTHWEST AND NORTH CENTRAL SOUTH DAKOTA

CITY           SKY/WX    TMP DP  RH WIND       PRES   REMARKS
BUFFALO          N/A      6  -4  63 NW8       30.42F WCI  -7
FAITH            N/A      2  -4  76 NW13      30.55F WCI -15
MOBRIDGE       SUNNY      5  -5  63 NW10      30.59F WCI -10
$$

SDZ012>016-024>037-041>051-057-063-072>074-082200-
SOUTHWEST AND SOUTH CENTRAL SOUTH DAKOTA

CITY           SKY/WX    TMP DP  RH WIND       PRES   REMARKS
RAPID CTY ARPT SUNNY     13  -4  46 NE8       30.50F WCI   2
PIERRE         CLOUDY     8   1  73 NW14      30.62F WCI  -8
CUSTER         MOSUNNY    9  -7  48 S8        30.24F WCI  -3
ELLSWORTH AFB  SUNNY     12  -4  47 N7        30.48F WCI   2
PHILIP         SUNNY     12  -2  53 NW9       30.59F WCI   0
PINE RIDGE     SUNNY      9  -4  55 SE3       30.50F
SPEARFISH      FAIR       7  -4  61 CALM      30.42F
WINNER         FAIR      15   1  53 NW17      30.60F WCI  -1
$$

SDZ004>011-016>023-039-040-082200-
NORTHEAST SOUTH DAKOTA

CITY           SKY/WX    TMP DP  RH WIND       PRES   REMARKS
ABERDEEN       SUNNY     14   2  58 NW15      30.60R WCI  -1
WATERTOWN      CLOUDY    13   6  74 NW17      30.51R WCI  -4
BROOKINGS      MOSUNNY   14   7  73 NW20      30.51R WCI  -3
SISSETON         N/A     14   7  73 NW21      30.54R WCI  -4
$$

SDZ017-020-022-023-036>040-048>070-082200-
SOUTHEAST SOUTH DAKOTA

CITY           SKY/WX    TMP DP  RH WIND       PRES   REMARKS
SIOUX FALLS    MOSUNNY   20   8  60 NW17      30.54S WCI   5
HURON          SUNNY     17   6  62 NW16      30.61R WCI   2
CHAMBERLAIN    SUNNY     14   6  69 W18G25    30.62S WCI  -3
MITCHELL       SUNNY     19   6  57 NW16      30.62S WCI   4
YANKTON        SUNNY     21   5  49 NW18      30.59S WCI   6
$$

ABBREVIATIONS USED IN REMARKS
   TC - TEMPERATURE IN CELSIUS
  WCI - WIND CHILL INDEX
   HX - HEAT INDEX
  VSB - VISIBILITY





USA.gov is the U.S. government's official web portal to all federal, state and local government web resources and services.